CW9825 Weather Reports


Display with metric or nautical units.
time (UTC)temp
F
wind
direction
speed
MPH
gust
MPH
rain 1hr
in
rain 24hr
in
rain mn
in
humidity
%
barometer
mb
20201204232551 31 76 0.0 0.0 0.00 0.00 0.00 82 1017.3
20201204232125 31 76 0.0 0.0 0.00 0.00 0.00 81 1017.2
20201204231559 32 76 0.0 0.0 0.00 0.00 0.00 81 1016.9
20201204231114 32 76 0.0 0.0 0.00 0.00 0.00 80 1017.0
20201204230534 33 76 0.0 0.0 0.00 0.00 0.00 80 1016.9
20201204230121 33 76 0.0 0.0 0.00 0.00 0.00 79 1016.8
20201204225533 34 76 0.0 0.0 0.00 0.00 0.00 79 1016.7
20201204225048 34 76 0.0 0.0 0.00 0.00 0.00 78 1016.7
20201204224619 35 76 0.0 0.0 0.00 0.00 0.00 77 1016.6
20201204224036 35 76 0.0 0.0 0.00 0.00 0.00 76 1016.7
20201204223532 36 76 0.0 0.0 0.00 0.00 0.00 75 1016.7
20201204223054 36 76 0.0 0.0 0.00 0.00 0.00 75 1016.6
20201204222530 36 76 0.0 1.0 0.00 0.00 0.00 73 1016.5
20201204222033 37 76 0.0 1.0 0.00 0.00 0.00 73 1016.5
20201204221640 37 76 0.0 1.0 0.00 0.00 0.00 72 1016.5
20201204221035 37 76 0.0 0.0 0.00 0.00 0.00 72 1016.4
20201204220547 38 76 0.0 2.0 0.00 0.00 0.00 71 1016.3
20201204220106 38 76 0.0 2.0 0.00 0.00 0.00 70 1016.4
20201204215546 39 76 0.0 3.0 0.00 0.00 0.00 70 1016.2
20201204215030 39 76 1.0 3.0 0.00 0.00 0.00 70 1016.3
20201204214554 40 76 1.0 3.0 0.00 0.00 0.00 68 1016.1
20201204214034 40 76 1.0 4.0 0.00 0.00 0.00 68 1015.9
20201204213534 40 76 2.0 4.0 0.00 0.00 0.00 68 1015.7
20201204213042 40 76 1.0 2.0 0.00 0.00 0.00 67 1015.7
20201204212522 40 76 0.0 3.0 0.00 0.00 0.00 67 1015.6
20201204212024 40 76 2.0 4.0 0.00 0.00 0.00 67 1015.5
20201204211544 40 76 1.0 4.0 0.00 0.00 0.00 68 1015.4
20201204211035 40 76 1.0 3.0 0.00 0.00 0.00 68 1015.3
20201204210530 40 76 2.0 4.0 0.00 0.00 0.00 68 1015.3
20201204210058 40 76 1.0 4.0 0.00 0.00 0.00 68 1015.1
20201204205535 40 77 1.0 4.0 0.00 0.00 0.00 68 1015.0
20201204205017 40 79 2.0 4.0 0.00 0.00 0.00 69 1015.0
20201204204530 39 79 2.0 4.0 0.00 0.00 0.00 69 1015.1
20201204204034 39 79 1.0 4.0 0.00 0.00 0.00 69 1015.1
20201204203520 39 79 0.0 2.0 0.00 0.00 0.00 69 1015.2
20201204203127 39 79 0.0 3.0 0.00 0.00 0.00 69 1015.3
20201204202514 39 79 1.0 3.0 0.00 0.00 0.00 69 1015.2
20201204202025 39 79 2.0 4.0 0.00 0.00 0.00 69 1015.2
20201204201613 39 80 0.0 4.0 0.00 0.00 0.00 69 1015.0
20201204201045 38 80 1.0 3.0 0.00 0.00 0.00 70 1015.1
20201204200542 38 80 1.0 4.0 0.00 0.00 0.00 70 1015.0
20201204200026 39 80 2.0 4.0 0.00 0.00 0.00 69 1015.0
20201204195514 39 45 1.0 5.0 0.00 0.00 0.00 70 1015.0
20201204195025 38 44 1.0 6.0 0.00 0.00 0.00 70 1015.1
20201204194524 38 35 2.0 6.0 0.00 0.00 0.00 70 1015.1
20201204194011 38 75 1.0 4.0 0.00 0.00 0.00 71 1015.1
20201204193518 38 75 2.0 4.0 0.00 0.00 0.00 71 1015.1
20201204193016 38 75 1.0 3.0 0.00 0.00 0.00 71 1015.1
20201204192514 37 70 1.0 4.0 0.00 0.00 0.00 72 1015.1
20201204192029 37 70 1.0 4.0 0.00 0.00 0.00 71 1015.1
20201204191521 37 69 2.0 3.0 0.00 0.00 0.00 71 1015.1
20201204191103 37 69 1.0 4.0 0.00 0.00 0.00 72 1015.2
20201204190602 37 69 1.0 4.0 0.00 0.00 0.00 71 1015.1
20201204190136 37 69 1.0 5.0 0.00 0.00 0.00 71 1015.1
20201204185605 37 71 2.0 5.0 0.00 0.00 0.00 71 1015.1
20201204185059 37 138 0.0 4.0 0.00 0.00 0.00 71 1015.1
20201204184641 36 138 1.0 3.0 0.00 0.00 0.00 71 1015.2
20201204183556 36 150 2.0 3.0 0.00 0.00 0.00 72 1015.1
20201204183246 35 151 0.0 3.0 0.00 0.00 0.00 73 1015.1
20201204182554 35 151 1.0 4.0 0.00 0.00 0.00 73 1015.1
20201204182103 36 151 2.0 4.0 0.00 0.00 0.00 73 1015.1
20201204181759 36 178 1.0 3.0 0.00 0.00 0.00 72 1015.1
20201204181105 35 178 0.0 3.0 0.00 0.00 0.00 73 1015.3
20201204180558 35 179 0.0 3.0 0.00 0.00 0.00 74 1015.2
20201204180126 34 178 1.0 4.0 0.00 0.00 0.00 75 1015.2
20201204175556 35 196 2.0 4.0 0.00 0.00 0.00 75 1015.1
20201204175051 34 200 1.0 3.0 0.00 0.00 0.00 75 1015.2
20201204174804 34 195 1.0 3.0 0.00 0.00 0.00 76 1015.2
20201204174052 34 196 2.0 3.0 0.00 0.00 0.00 74 1015.4
20201204173549 33 205 0.0 3.0 0.00 0.00 0.00 77 1015.4
20201204173136 33 205 1.0 5.0 0.00 0.00 0.00 77 1015.4
20201204172554 33 205 1.0 5.0 0.00 0.00 0.00 78 1015.4
20201204172046 33 216 1.0 4.0 0.00 0.00 0.00 77 1015.2
20201204171616 33 216 1.0 3.0 0.00 0.00 0.00 79 1015.4
20201204171054 32 272 0.0 0.0 0.00 0.00 0.00 79 1015.3
20201204170545 32 276 0.0 0.0 0.00 0.00 0.00 80 1015.3
20201204170127 31 277 0.0 0.0 0.00 0.00 0.00 81 1015.3
20201204165559 32 277 0.0 0.0 0.00 0.00 0.00 81 1015.3
20201204165043 31 277 0.0 0.0 0.00 0.00 0.00 81 1015.3
20201204164613 31 290 0.0 3.0 0.00 0.00 0.00 81 1015.4
20201204164047 31 298 0.0 3.0 0.00 0.00 0.00 81 1015.5
20201204163543 30 277 0.0 2.0 0.00 0.00 0.00 82 1015.3
20201204163140 30 277 0.0 2.0 0.00 0.00 0.00 82 1015.4
20201204162603 29 277 0.0 3.0 0.00 0.00 0.00 82 1015.3
20201204162037 30 277 1.0 3.0 0.00 0.00 0.00 83 1015.2
20201204161559 30 277 0.0 3.0 0.00 0.00 0.00 83 1015.3
20201204161053 30 276 1.0 3.0 0.00 0.00 0.00 84 1015.2
20201204160556 29 264 1.0 4.0 0.00 0.00 0.00 83 1015.1
20201204160122 28 257 1.0 4.0 0.00 0.00 0.00 84 1015.1
20201204155531 28 257 2.0 6.0 0.00 0.00 0.00 84 1015.0
20201204155056 28 257 2.0 6.0 0.00 0.00 0.00 84 1014.8
20201204154548 28 282 1.0 4.0 0.00 0.00 0.00 85 1014.6
20201204154034 27 283 0.0 0.0 0.00 0.00 0.00 85 1014.6
20201204153542 27 283 0.0 0.0 0.00 0.00 0.00 86 1014.5
20201204153130 27 283 0.0 3.0 0.00 0.00 0.00 86 1014.4
20201204152540 26 283 0.0 3.0 0.00 0.00 0.00 87 1014.3
20201204152033 26 284 0.0 0.0 0.00 0.00 0.00 87 1014.3
20201204151544 25 284 0.0 0.0 0.00 0.00 0.00 88 1014.3
20201204151039 25 284 0.0 1.0 0.00 0.00 0.00 89 1014.1
20201204150528 24 284 0.0 1.0 0.00 0.00 0.00 89 1014.1
20201204150038 24 284 0.0 3.0 0.00 0.00 0.00 89 1014.1
20201204145531 24 284 1.0 3.0 0.00 0.00 0.00 89 1014.1
20201204145041 23 292 0.0 3.0 0.00 0.00 0.00 90 1014.1
20201204144536 23 292 0.0 0.0 0.00 0.00 0.00 90 1014.0
20201204144027 22 292 0.0 0.0 0.00 0.00 0.00 90 1014.2
20201204143523 22 292 0.0 0.0 0.00 0.00 0.00 91 1014.2
20201204143050 22 292 0.0 0.0 0.00 0.00 0.00 92 1014.1
20201204142520 21 293 0.0 0.0 0.00 0.00 0.00 91 1014.2
20201204142031 21 293 0.0 0.0 0.00 0.00 0.00 91 1014.3
20201204141618 21 293 0.0 0.0 0.00 0.00 0.00 92 1014.3
20201204141048 21 293 0.0 0.0 0.00 0.00 0.00 92 1014.2
20201204140533 21 293 0.0 0.0 0.00 0.00 0.00 91 1014.2
20201204140100 21 293 0.0 0.0 0.00 0.00 0.00 91 1014.1
20201204135530 21 293 0.0 0.0 0.00 0.00 0.00 91 1014.2
20201204135027 22 293 0.0 0.0 0.00 0.00 0.00 91 1014.1
20201204134536 22 293 0.0 0.0 0.00 0.00 0.00 91 1014.1
20201204134023 21 293 0.0 0.0 0.00 0.00 0.00 91 1014.1
20201204133516 21 293 0.0 0.0 0.00 0.00 0.00 91 1014.0
20201204133040 21 293 0.0 0.0 0.00 0.00 0.00 91 1014.0
20201204132523 21 293 0.0 0.0 0.00 0.00 0.00 90 1013.9
20201204132028 21 293 0.0 0.0 0.00 0.00 0.00 90 1013.9
20201204131547 21 293 0.0 0.0 0.00 0.00 0.00 90 1014.0
20201204131020 22 293 0.0 0.0 0.00 0.00 0.00 90 1014.0
20201204130525 22 293 0.0 0.0 0.00 0.00 0.00 90 1014.0
20201204130039 22 293 0.0 0.0 0.00 0.00 0.00 89 1014.0
20201204125521 23 293 0.0 0.0 0.00 0.00 0.00 90 1013.9
20201204125017 23 293 0.0 0.0 0.00 0.00 0.00 89 1013.8
20201204124533 24 293 0.0 0.0 0.00 0.00 0.00 89 1013.9
20201204124025 24 293 0.0 0.0 0.00 0.00 0.00 88 1014.1
20201204123531 24 293 0.0 2.0 0.00 0.00 0.00 88 1014.1
20201204123051 24 293 0.0 4.0 0.00 0.00 0.00 88 1014.2
20201204122521 24 293 1.0 4.0 0.00 0.00 0.00 88 1014.3
20201204122024 25 293 1.0 4.0 0.00 0.00 0.00 88 1014.3
20201204121522 25 290 2.0 5.0 0.00 0.00 0.00 88 1014.4
20201204121025 25 292 2.0 7.0 0.00 0.00 0.00 88 1014.3
20201204120512 25 294 3.0 7.0 0.00 0.00 0.00 87 1014.3
20201204120026 25 288 3.0 4.0 0.00 0.00 0.00 87 1014.3
20201204115021 25 297 1.0 4.0 0.00 0.00 0.00 87 1014.1
20201204114524 25 303 2.0 4.0 0.00 0.00 0.00 88 1014.0
20201204114019 25 284 1.0 3.0 0.00 0.00 0.00 88 1014.0
20201204113518 25 261 1.0 3.0 0.00 0.00 0.00 88 1013.9
20201204113043 24 258 1.0 3.0 0.00 0.00 0.00 87 1013.9
20201204112523 24 258 1.0 3.0 0.00 0.00 0.00 88 1013.7
20201204111734 24 258 1.0 3.0 0.00 0.00 0.00 87 1013.7
20201204111100 24 258 1.0 4.0 0.00 0.00 0.00 87 1013.8
20201204110601 25 258 1.0 4.0 0.00 0.00 0.00 87 1013.9
20201204110128 25 258 1.0 3.0 0.00 0.00 0.00 87 1014.0
20201204105601 25 258 1.0 3.0 0.00 0.00 0.00 86 1014.1
20201204105058 25 258 1.0 4.0 0.00 0.00 0.00 86 1014.2
20201204104647 25 258 1.0 4.0 0.00 0.00 0.00 86 1014.1
20201204104058 25 258 2.0 6.0 0.00 0.00 0.00 86 1014.0
20201204103557 26 258 2.0 6.0 0.00 0.00 0.00 86 1014.0
20201204103250 26 287 2.0 5.0 0.00 0.00 0.00 86 1014.0
20201204102551 26 294 1.0 3.0 0.00 0.00 0.00 86 1013.9
20201204102101 26 294 0.0 3.0 0.00 0.00 0.00 85 1013.7
20201204101658 26 294 1.0 3.0 0.00 0.00 0.00 85 1013.7
20201204101056 26 294 1.0 4.0 0.00 0.00 0.00 85 1013.7
20201204100552 26 294 2.0 4.0 0.00 0.00 0.00 85 1013.7
20201204100211 26 297 2.0 4.0 0.00 0.00 0.00 85 1013.7
20201204095553 26 297 2.0 4.0 0.00 0.00 0.00 85 1013.7
20201204095050 26 300 2.0 4.0 0.00 0.00 0.00 85 1013.7
20201204094607 26 303 2.0 4.0 0.00 0.00 0.00 85 1013.6
20201204094055 26 306 0.0 5.0 0.00 0.00 0.00 85 1013.7
20201204093546 26 306 1.0 5.0 0.00 0.00 0.00 85 1013.7
20201204093221 26 269 0.0 3.0 0.00 0.00 0.00 85 1013.6
20201204092559 27 269 0.0 3.0 0.00 0.00 0.00 84 1013.5
20201204092056 26 269 1.0 4.0 0.00 0.00 0.00 85 1013.6
20201204091715 26 269 1.0 4.0 0.00 0.00 0.00 84 1013.5
20201204091059 26 269 1.0 3.0 0.00 0.00 0.00 84 1013.7
20201204090546 26 269 1.0 3.0 0.00 0.00 0.00 84 1013.7
20201204090146 27 269 1.0 4.0 0.00 0.00 0.00 84 1013.7
20201204085600 27 269 2.0 4.0 0.00 0.00 0.00 84 1013.8
20201204085048 27 265 2.0 6.0 0.00 0.00 0.00 84 1013.8
20201204084627 27 265 2.0 6.0 0.00 0.00 0.00 83 1013.8
20201204084053 27 290 1.0 5.0 0.00 0.00 0.00 83 1013.7
20201204083538 27 292 2.0 5.0 0.00 0.00 0.00 83 1013.7
20201204083053 27 302 2.0 5.0 0.00 0.00 0.00 83 1013.6
20201204082541 27 300 2.0 5.0 0.00 0.00 0.00 83 1013.5
20201204082042 27 293 2.0 5.0 0.00 0.00 0.00 83 1013.5
20201204081637 27 284 3.0 5.0 0.00 0.00 0.00 83 1013.4
20201204081040 28 290 3.0 7.0 0.00 0.00 0.00 82 1013.4
20201204080541 28 284 2.0 7.0 0.00 0.00 0.00 82 1013.5
20201204080154 28 290 3.0 7.0 0.00 0.00 0.00 82 1013.4
20201204075537 28 289 3.0 7.0 0.00 0.00 0.00 82 1013.4
20201204075030 28 286 3.0 7.0 0.00 0.00 0.00 82 1013.5
20201204074600 28 290 2.0 5.0 0.00 0.00 0.00 81 1013.5
20201204074029 28 288 3.0 6.0 0.00 0.00 0.00 81 1013.5
20201204073531 28 284 3.0 6.0 0.00 0.00 0.00 81 1013.5
20201204073111 28 299 3.0 7.0 0.00 0.00 0.00 81 1013.5
20201204072530 29 299 3.0 8.0 0.00 0.00 0.00 81 1013.4
20201204072036 29 294 3.0 8.0 0.00 0.00 0.00 81 1013.4
20201204071634 29 294 3.0 8.0 0.00 0.00 0.00 81 1013.3
20201204071028 29 274 3.0 8.0 0.00 0.00 0.00 81 1013.4
20201204070531 29 284 3.0 7.0 0.00 0.00 0.00 81 1013.4
20201204070130 28 279 2.0 4.0 0.00 0.00 0.00 81 1013.2
20201204065528 28 279 2.0 3.0 0.00 0.00 0.00 81 1013.2
20201204065028 29 281 1.0 3.0 0.00 0.00 0.00 81 1013.2
20201204064525 29 281 1.0 4.0 0.00 0.00 0.00 81 1013.2
20201204064023 29 280 1.0 4.0 0.00 0.00 0.00 80 1013.3
20201204063520 29 275 2.0 4.0 0.00 0.00 0.00 80 1013.3
20201204063111 29 277 1.0 4.0 0.00 0.00 0.00 80 1013.3
20201204062520 29 279 2.0 4.0 0.00 0.00 0.00 80 1013.3
20201204062022 29 270 2.0 4.0 0.00 0.00 0.00 80 1013.2
20201204061522 29 284 2.0 4.0 0.00 0.00 0.00 80 1013.4
20201204061026 29 295 1.0 3.0 0.00 0.00 0.00 79 1013.3
20201204060037 30 296 1.0 9.0 0.00 0.00 0.00 79 1013.3
20201204055513 30 290 3.0 9.0 0.00 0.00 0.00 78 1013.4
20201204055026 30 289 3.0 7.0 0.00 0.00 0.00 79 1013.4
20201204054557 30 299 3.0 7.0 0.00 0.00 0.00 79 1013.1
20201204054021 30 282 3.0 7.0 0.00 0.00 0.00 79 1013.0
20201204053518 30 273 3.0 7.0 0.00 0.00 0.00 79 1013.1
20201204053027 30 279 4.0 7.0 0.00 0.00 0.00 79 1013.1
20201204052514 30 275 4.0 7.0 0.00 0.00 0.00 79 1013.1
20201204052022 30 290 3.0 5.0 0.00 0.00 0.00 79 1013.0
20201204051529 30 283 2.0 5.0 0.00 0.00 0.00 79 1012.9
20201204051019 30 288 2.0 5.0 0.00 0.00 0.00 79 1012.8
20201204050518 30 296 2.0 4.0 0.00 0.00 0.00 79 1012.8
20201204050028 30 296 2.0 5.0 0.00 0.00 0.00 79 1012.8
20201204045519 30 286 2.0 5.0 0.00 0.00 0.00 79 1012.9
20201204045027 30 288 2.0 5.0 0.00 0.00 0.00 79 1012.8
20201204044531 30 292 2.0 6.0 0.00 0.00 0.00 79 1012.9
20201204044019 30 263 2.0 6.0 0.00 0.00 0.00 78 1012.9
20201204043514 30 271 2.0 6.0 0.00 0.00 0.00 78 1012.8
20201204043021 30 284 2.0 6.0 0.00 0.00 0.00 79 1012.9
20201204042515 30 266 2.0 4.0 0.00 0.00 0.00 79 1012.8
20201204042017 31 276 2.0 6.0 0.00 0.00 0.00 78 1012.9
20201204041527 31 275 2.0 6.0 0.00 0.00 0.00 77 1013.0
20201204041011 31 299 2.0 7.0 0.00 0.00 0.00 77 1013.1
20201204040512 31 289 2.0 9.0 0.00 0.00 0.00 77 1013.1
20201204040057 31 292 3.0 9.0 0.00 0.00 0.00 77 1013.1
20201204035514 32 295 3.0 9.0 0.00 0.00 0.00 76 1013.1
20201204035021 32 282 5.0 9.0 0.00 0.00 0.00 76 1013.2
20201204034520 33 266 4.0 7.0 0.00 0.00 0.00 75 1013.2
20201204034017 33 298 3.0 8.0 0.00 0.00 0.00 75 1013.1
20201204033510 33 296 3.0 8.0 0.00 0.00 0.00 75 1013.3
20201204033013 33 318 3.0 8.0 0.00 0.00 0.00 74 1013.3
20201204032511 33 291 2.0 8.0 0.00 0.00 0.00 74 1013.2
20201204032017 34 309 3.0 8.0 0.00 0.00 0.00 74 1013.3
20201204031512 34 300 4.0 8.0 0.00 0.00 0.00 74 1013.2
20201204031010 34 303 4.0 8.0 0.00 0.00 0.00 73 1013.3
20201204030511 34 301 3.0 7.0 0.00 0.00 0.00 73 1013.2
20201204030019 34 293 4.0 7.0 0.00 0.00 0.00 73 1013.2
20201204025522 34 302 3.0 9.0 0.00 0.00 0.00 73 1013.2
20201204025012 34 295 3.0 9.0 0.00 0.00 0.00 73 1013.1
20201204024511 34 297 3.0 7.0 0.00 0.00 0.00 73 1013.0
20201204024015 34 285 3.0 7.0 0.00 0.00 0.00 73 1012.9
20201204023514 35 310 4.0 6.0 0.00 0.00 0.00 73 1012.9
20201204023408 35 281 4.0 8.0 0.00 0.00 0.00 72 1012.9
20201204022607 35 295 3.0 8.0 0.00 0.00 0.00 72 1012.9
20201204022100 35 297 3.0 7.0 0.00 0.00 0.00 72 1013.0
20201204021836 35 300 3.0 7.0 0.00 0.00 0.00 72 1013.0
20201204021059 35 284 2.0 7.0 0.00 0.00 0.00 72 1013.0
20201204020604 36 297 2.0 7.0 0.00 0.00 0.00 72 1013.1
20201204020225 36 293 3.0 7.0 0.00 0.00 0.00 72 1013.1
20201204015600 36 288 2.0 5.0 0.00 0.00 0.00 71 1013.0
20201204015112 36 284 3.0 5.0 0.00 0.00 0.00 71 1013.1
20201204014629 36 294 3.0 5.0 0.00 0.00 0.00 71 1013.1
20201204014104 36 291 3.0 6.0 0.00 0.00 0.00 71 1013.1
20201204013604 36 298 2.0 4.0 0.00 0.00 0.00 71 1013.2
20201204013258 36 289 2.0 4.0 0.00 0.00 0.00 72 1013.2
20201204012640 36 286 2.0 4.0 0.00 0.00 0.00 72 1013.2
20201204012104 35 292 2.0 3.0 0.00 0.00 0.00 73 1013.3
20201204011641 35 292 0.0 0.0 0.00 0.00 0.00 74 1013.2
20201204011105 35 292 0.0 0.0 0.00 0.00 0.00 73 1013.2
20201204010605 35 292 0.0 0.0 0.00 0.00 0.00 72 1013.1
20201204010127 35 292 0.0 0.0 0.00 0.00 0.00 74 1013.2
20201204005555 34 292 0.0 0.0 0.00 0.00 0.00 74 1013.2
20201204005133 35 292 0.0 0.0 0.00 0.00 0.00 73 1013.3
20201204004655 36 292 0.0 2.0 0.00 0.00 0.00 71 1013.3
20201204004103 37 292 0.0 2.0 0.00 0.00 0.00 70 1013.3
20201204003629 37 292 1.0 2.0 0.00 0.00 0.00 69 1013.3
20201204003121 37 292 0.0 3.0 0.00 0.00 0.00 69 1013.3
20201204002557 38 292 1.0 3.0 0.00 0.00 0.00 68 1013.2
20201204002100 38 292 2.0 3.0 0.00 0.00 0.00 68 1013.2
20201204001619 39 292 1.0 2.0 0.00 0.00 0.00 67 1013.2
20201204001115 39 292 0.0 0.0 0.00 0.00 0.00 66 1013.2
20201204000555 39 292 0.0 2.0 0.00 0.00 0.00 66 1013.2
20201204000131 39 292 0.0 2.0 0.00 0.00 0.00 66 1013.4
20201203235556 39 292 0.0 2.0 0.00 0.00 0.00 65 1013.4
20201203235054 40 292 0.0 3.0 0.00 0.00 0.00 64 1013.3
20201203234719 40 292 0.0 4.0 0.00 0.00 0.00 64 1013.3
20201203234053 40 292 2.0 4.0 0.00 0.00 0.00 64 1013.2
20201203233603 40 306 1.0 5.0 0.00 0.00 0.00 64 1013.3
20201203233152 40 304 2.0 5.0 0.00 0.00 0.00 64 1013.3